CST,Max TemperatureF,Mean TemperatureF,Min TemperatureF,Max Dew PointF,MeanDew PointF,Min DewpointF,Max Humidity, Mean Humidity, Min Humidity, Max Sea Level PressureIn, Mean Sea Level PressureIn, Min Sea Level PressureIn, Max VisibilityMiles, Mean VisibilityMiles, Min VisibilityMiles, Max Wind SpeedMPH, Mean Wind SpeedMPH, Max Gust SpeedMPH,PrecipitationIn, CloudCover, Events, WindDirDegrees
2012-11-1,56,43,30,37,28,20,74,55,34,29.99,29.93,29.86,10,10,10,13,9,,0.00,2,,287
2012-11-2,48,39,30,32,28,24,89,67,38,30.16,30.08,29.94,10,10,10,12,9,,0.00,0,,27
2012-11-3,41,36,32,36,34,30,100,88,70,30.26,30.19,30.14,10,10,7,14,9,,0.07,6,Rain-Thunderstorm,75
2012-11-4,45,37,29,34,31,28,100,81,58,30.30,30.25,30.22,10,9,4,8,4,,0.00,2,,342
2012-11-5,45,36,28,32,29,26,100,79,50,30.23,30.19,30.14,10,10,8,15,8,,0.00,2,,90
2012-11-6,41,35,29,41,37,28,100,96,76,30.14,29.97,29.89,10,4,1,10,6,,0.11,8,Rain,219
2012-11-7,43,40,38,43,40,38,100,97,86,30.22,30.06,29.90,8,4,0,13,9,,0.00,8,Fog-Rain,356
2012-11-8,46,42,38,40,38,34,100,87,68,30.26,30.19,30.11,10,7,4,15,7,,0.00,5,,195
2012-11-9,59,48,36,52,44,36,100,86,62,30.13,30.04,29.96,10,8,5,16,12,,0.00,1,,169
2012-11-10,70,61,52,53,50,47,100,71,45,30.01,29.96,29.88,10,10,8,28,17,,0.00,1,,188
2012-11-11,65,51,34,56,49,35,100,86,61,30.02,29.91,29.77,10,6,2,41,22,48,0.50,5,Rain,218
2012-11-12,36,30,25,34,25,17,100,76,50,30.44,30.21,30.01,10,10,7,24,16,,0.00,4,Rain,275
2012-11-13,39,31,23,26,21,18,92,68,43,30.57,30.52,30.45,10,10,10,8,5,,0.00,0,,235
2012-11-14,43,36,28,27,25,24,89,72,50,30.56,30.49,30.43,10,10,10,13,7,,0.00,0,,160
2012-11-15,45,35,25,30,26,23,96,72,44,30.45,30.41,30.38,10,9,5,8,5,,0.00,0,,190
2012-11-16,52,40,29,33,29,24,92,68,42,30.51,30.48,30.42,10,10,7,9,6,,0.00,0,,173
2012-11-17,52,42,31,35,30,25,86,69,47,30.58,30.51,30.46,10,9,7,10,7,,0.00,0,,151
2012-11-18,56,44,32,36,32,27,82,66,44,30.46,30.40,30.34,10,10,8,12,8,,0.00,0,,165
2012-11-19,52,44,36,42,38,33,86,72,57,30.32,30.24,30.14,10,10,9,14,10,,0.00,4,Rain,182
2012-11-20,56,50,41,47,44,39,100,79,67,30.21,30.14,30.09,10,9,2,9,6,,0.00,5,,268
2012-11-21,53,42,32,52,42,32,100,99,86,30.30,30.22,30.15,5,2,0,13,6,,0.00,2,Fog-Rain-Snow,225
2012-11-22,61,50,39,49,44,35,100,84,58,30.15,30.01,29.89,10,6,2,28,14,,0.01,2,Rain-Thunderstorm,208
2012-11-23,38,30,22,32,21,14,86,66,50,30.33,30.20,30.05,10,10,10,30,20,,0.00,1,,291
2012-11-24,31,26,21,22,18,15,80,72,59,30.36,30.25,30.06,10,10,10,16,9,,0.00,4,,250
2012-11-25,45,38,30,27,25,21,72,61,48,30.12,29.99,29.93,10,10,10,16,11,,0.00,2,,278
2012-11-26,36,32,25,25,20,17,85,65,48,30.42,30.29,30.12,10,10,10,16,11,,0.00,3,,1
2012-11-27,34,24,15,18,13,9,85,60,34,30.50,30.41,30.35,10,10,10,12,7,,0.00,0,,293
2012-11-28,43,34,24,25,21,17,85,65,44,30.46,30.40,30.34,10,10,9,10,7,,0.00,1,,222
2012-11-29,50,38,27,34,30,23,89,73,52,30.33,30.22,30.12,10,10,7,16,11,,0.00,0,,188
2012-11-30,55,46,37,37,34,31,93,67,47,30.15,30.11,30.07,10,10,10,15,11,,0.00,0,,208